Hourly Data Report for June 12, 2020

OTTAWA INTL A
ONTARIO
Current Station Operator: NAVCAN

45°19'00.000" N
75°40'00.000" W
114.90 m
6106001
71628
YOW

Download Data

Hourly Data (June 2020)
Hourly Data Report for June 12, 2020
TIME Temp Definition
°C
Dew Point Definition
°C
Rel Hum Definition
%
Wind Dir Definition
10's deg

Wind Spd Definition
km/h
Visibility Definition
km
Stn Press Definition
kPa
Hmdx Definition


Wind Chill Definition


Weather Definition


00:00 14.3 11.4 82 17 10 24.1 100.13     LegendNANA
01:00 14.9 12.7 87 19 14 24.1 100.09     Mainly Clear
02:00 14.9 12.9 88 19 14 24.1 100.03     LegendNANA
03:00 14.3 12.7 90 21 14 24.1 100.04     LegendNANA
04:00 14.5 12.4 87 21 15 24.1 100.00     Mostly Cloudy
05:00 14.9 12.0 83 22 18 24.1 100.01     LegendNANA
06:00 15.1 11.8 80 21 18 24.1 100.02     LegendNANA
07:00 16.7 7.9 55 24 35 24.1 100.02     Mainly Clear
08:00 17.2 6.9 50 25 30 24.1 100.10     LegendNANA
09:00 15.2 6.3 55 29 34 24.1 100.21     LegendNANA
10:00 15.4 5.2 50 28 24 24.1 100.28     Mainly Clear
11:00 15.8 3.7 44 29 33 24.1 100.32     LegendNANA
12:00 17.1 5.5 46 27 21 24.1 100.33     LegendNANA
13:00 16.9 4.3 43 30 26 24.1 100.32     Mainly Clear
14:00 17.0 5.2 45 31 37 24.1 100.38     LegendNANA
15:00 16.5 4.7 45 29 37 24.1 100.42     LegendNANA
16:00 15.9 4.5 46 31 35 24.1 100.43     Mostly Cloudy
17:00 15.7 4.7 48 31 41 24.1 100.49     LegendNANA
18:00 13.6 4.1 52 31 28 24.1 100.55     LegendNANA
19:00 12.0 4.6 60 30 28 24.1 100.63     Mostly Cloudy
20:00 10.6 4.4 65 31 20 24.1 100.69     LegendNANA
21:00 8.7 6.3 85 28 22 80.5 100.76     Moderate Rain Showers
22:00 7.8 4.3 78 32 26 24.1 100.82     Mostly Cloudy
23:00 6.5 2.5 75 31 35 24.1 100.84     LegendNANA

Notes on Data Quality.

Legend

  • E = Estimated
  • M = Missing
  • NA = Not Available*
  • [empty] = Indicates an unobserved value
Date modified: